User: anonymous   Login
Location: Härggis
(46.9540°N, 8.4897°E)
Time: 03:26:52
(UTC+00:00)
Language:

Lacrosse 5 rocket - Orbit

View from above orbital plane
View from above orbital plane
View from above satellite
View from above satellite

Ground track
Ground track

The orbit data is extracted from the following two-line orbital elements,

1 28647U 05016B   22228.45486398  .00001826  00000-0  11576-3 0  9992
2 28647  56.9948 264.5056 0124073 128.8623 232.3565 15.08112383179022
Epoch (UTC): 16 August 2022 10:55:00
Eccentricity: 0.0124073
inclination: 56.9948°
perigee height: 456 km
apogee height: 628 km
right ascension of ascending node: 264.5056°
argument of perigee: 128.8623°
revolutions per day: 15.08112383
mean anomaly at epoch: 232.3565°
orbit number at epoch: 17902

The dashed part of the orbit path shows where the satellite is in the earth's shadow,  

DLR